Tabellarische Ansicht des 16.7.2012


Die einzelnen Werte des Tages

Uhrzeit Temperatur Luftdruck Luftfeuchte Wind Hi-Wind Taupunkt THW Index Wind Chill Heat Index Solar- strahlung Regen

00:00

14.4 C

1014.7 hpa

78 %

6.4 km/h aus 105

14.5 km/h aus SW

10.7 C

14.3 C

14.4 C

14.3 C

0 W/m

0.00 mm

00:05

14.4 C

1014.7 hpa

78 %

6.4 km/h aus 104

17.7 km/h aus SW

10.7 C

14.3 C

14.4 C

14.3 C

0 W/m

0.00 mm

00:10

14.4 C

1014.7 hpa

78 %

4.8 km/h aus 104

9.7 km/h aus SW

10.7 C

14.3 C

14.4 C

14.3 C

0 W/m

0.00 mm

00:15

14.4 C

1014.7 hpa

78 %

6.4 km/h aus 106

14.5 km/h aus SW

10.7 C

14.3 C

14.4 C

14.3 C

0 W/m

0.00 mm

00:20

14.4 C

1014.7 hpa

77 %

6.4 km/h aus 109

16.1 km/h aus SW

10.4 C

14.2 C

14.4 C

14.2 C

0 W/m

0.00 mm

00:25

14.3 C

1014.7 hpa

77 %

6.4 km/h aus 105

14.5 km/h aus SW

10.3 C

14.1 C

14.3 C

14.1 C

0 W/m

0.00 mm

00:30

14.3 C

1014.8 hpa

77 %

4.8 km/h aus 111

9.7 km/h aus WSW

10.3 C

14.1 C

14.3 C

14.1 C

0 W/m

0.00 mm

00:35

14.3 C

1014.8 hpa

77 %

8.0 km/h aus 103

16.1 km/h aus SW

10.3 C

13.8 C

14.0 C

14.1 C

0 W/m

0.00 mm

00:40

14.3 C

1014.8 hpa

77 %

8.0 km/h aus 106

16.1 km/h aus SW

10.4 C

13.9 C

14.1 C

14.1 C

0 W/m

0.00 mm

00:45

14.3 C

1014.9 hpa

78 %

3.2 km/h aus 107

9.7 km/h aus WSW

10.5 C

14.1 C

14.3 C

14.1 C

0 W/m

0.00 mm

00:50

14.3 C

1014.9 hpa

78 %

6.4 km/h aus 104

16.1 km/h aus WSW

10.5 C

14.2 C

14.3 C

14.2 C

0 W/m

0.00 mm

00:55

14.3 C

1014.9 hpa

78 %

6.4 km/h aus 102

14.5 km/h aus SW

10.5 C

14.1 C

14.3 C

14.1 C

0 W/m

0.00 mm

01:00

14.3 C

1015.2 hpa

78 %

3.2 km/h aus 105

9.7 km/h aus SSW

10.5 C

14.1 C

14.3 C

14.1 C

0 W/m

0.00 mm

01:05

14.3 C

1015.2 hpa

78 %

6.4 km/h aus 114

14.5 km/h aus SW

10.5 C

14.1 C

14.3 C

14.1 C

0 W/m

0.00 mm

01:10

14.2 C

1015.2 hpa

78 %

4.8 km/h aus 102

14.5 km/h aus SW

10.4 C

14.0 C

14.2 C

14.0 C

0 W/m

0.00 mm

01:15

14.1 C

1015.3 hpa

79 %

6.4 km/h aus 109

16.1 km/h aus WSW

10.5 C

13.9 C

14.1 C

13.9 C

0 W/m

0.00 mm

01:20

13.9 C

1015.3 hpa

80 %

6.4 km/h aus 111

12.9 km/h aus WSW

10.5 C

13.7 C

13.9 C

13.7 C

0 W/m

0.00 mm

01:25

13.8 C

1015.3 hpa

80 %

4.8 km/h aus 106

11.3 km/h aus SSW

10.4 C

13.6 C

13.8 C

13.6 C

0 W/m

0.00 mm

01:30

13.6 C

1015.4 hpa

81 %

4.8 km/h aus 103

11.3 km/h aus SW

10.4 C

13.4 C

13.6 C

13.4 C

0 W/m

0.00 mm

01:35

13.4 C

1015.4 hpa

81 %

6.4 km/h aus 102

14.5 km/h aus SW

10.2 C

13.2 C

13.3 C

13.3 C

0 W/m

0.00 mm

01:40

13.4 C

1015.4 hpa

81 %

6.4 km/h aus 107

16.1 km/h aus SW

10.2 C

13.2 C

13.3 C

13.3 C

0 W/m

0.00 mm

01:45

13.4 C

1015.6 hpa

81 %

4.8 km/h aus 100

11.3 km/h aus SW

10.2 C

13.2 C

13.4 C

13.2 C

0 W/m

0.00 mm

01:50

13.3 C

1015.6 hpa

81 %

4.8 km/h aus 110

8.0 km/h aus SW

10.1 C

13.2 C

13.3 C

13.2 C

0 W/m

0.00 mm

01:55

13.0 C

1015.6 hpa

82 %

3.2 km/h aus 104

8.0 km/h aus SW

10.0 C

12.9 C

13.0 C

12.9 C

0 W/m

0.00 mm

02:00

12.8 C

1015.6 hpa

83 %

3.2 km/h aus 114

9.7 km/h aus SW

10.0 C

12.7 C

12.8 C

12.7 C

0 W/m

0.00 mm

02:05

12.7 C

1015.6 hpa

83 %

3.2 km/h aus 107

8.0 km/h aus SW

9.9 C

12.6 C

12.7 C

12.6 C

0 W/m

0.00 mm

02:10

12.6 C

1015.6 hpa

84 %

4.8 km/h aus 111

11.3 km/h aus SW

10.0 C

12.6 C

12.6 C

12.6 C

0 W/m

0.00 mm

02:15

12.7 C

1015.9 hpa

84 %

3.2 km/h aus 99

8.0 km/h aus SW

10.0 C

12.6 C

12.7 C

12.6 C

0 W/m

0.00 mm

02:20

12.7 C

1015.9 hpa

84 %

4.8 km/h aus 94

8.0 km/h aus SSW

10.1 C

12.7 C

12.7 C

12.7 C

0 W/m

0.00 mm

02:25

12.8 C

1015.9 hpa

84 %

3.2 km/h aus 104

9.7 km/h aus SSW

10.1 C

12.7 C

12.8 C

12.7 C

0 W/m

0.00 mm

02:30

12.8 C

1015.9 hpa

84 %

3.2 km/h aus 108

12.9 km/h aus SSW

10.2 C

12.8 C

12.8 C

12.8 C

0 W/m

0.00 mm

02:35

12.8 C

1015.9 hpa

84 %

4.8 km/h aus 106

11.3 km/h aus SW

10.2 C

12.8 C

12.8 C

12.8 C

0 W/m

0.00 mm

02:40

12.8 C

1015.9 hpa

84 %

4.8 km/h aus 105

9.7 km/h aus SW

10.2 C

12.8 C

12.8 C

12.8 C

0 W/m

0.00 mm

02:45

12.8 C

1015.9 hpa

84 %

3.2 km/h aus 99

11.3 km/h aus SSW

10.2 C

12.8 C

12.8 C

12.8 C

0 W/m

0.00 mm

02:50

12.8 C

1015.9 hpa

84 %

4.8 km/h aus 106

11.3 km/h aus SSW

10.2 C

12.8 C

12.8 C

12.8 C

0 W/m

0.00 mm

02:55

12.8 C

1015.9 hpa

84 %

4.8 km/h aus 101

9.7 km/h aus SSW

10.2 C

12.8 C

12.8 C

12.8 C

0 W/m

0.00 mm

03:00

12.9 C

1016.0 hpa

84 %

8.0 km/h aus 103

14.5 km/h aus SW

10.2 C

12.3 C

12.4 C

12.8 C

0 W/m

0.00 mm

03:05

12.9 C

1016.0 hpa

84 %

4.8 km/h aus 95

19.3 km/h aus SSW

10.3 C

12.9 C

12.9 C

12.9 C

0 W/m

0.00 mm

03:10

12.9 C

1016.0 hpa

84 %

4.8 km/h aus 104

11.3 km/h aus SSW

10.3 C

12.9 C

12.9 C

12.9 C

0 W/m

0.00 mm

03:15

12.9 C

1016.2 hpa

84 %

6.4 km/h aus 99

16.1 km/h aus SW

10.3 C

12.7 C

12.8 C

12.9 C

0 W/m

0.00 mm

03:20

12.9 C

1016.2 hpa

83 %

6.4 km/h aus 105

16.1 km/h aus SSW

10.1 C

12.7 C

12.8 C

12.8 C

0 W/m

0.00 mm

03:25

12.9 C

1016.2 hpa

83 %

8.0 km/h aus 99

16.1 km/h aus SW

10.1 C

12.3 C

12.4 C

12.8 C

0 W/m

0.00 mm

03:30

12.8 C

1016.2 hpa

83 %

6.4 km/h aus 104

11.3 km/h aus SW

10.0 C

12.4 C

12.6 C

12.7 C

0 W/m

0.00 mm

03:35

12.7 C

1016.2 hpa

84 %

6.4 km/h aus 102

11.3 km/h aus SSW

10.0 C

12.4 C

12.4 C

12.6 C

0 W/m

0.00 mm

03:40

12.6 C

1016.2 hpa

84 %

8.0 km/h aus 104

16.1 km/h aus SW

9.9 C

11.9 C

12.0 C

12.5 C

0 W/m

0.00 mm

03:45

12.4 C

1016.3 hpa

84 %

8.0 km/h aus 106

14.5 km/h aus SSW

9.8 C

11.8 C

11.9 C

12.4 C

0 W/m

0.00 mm

03:50

12.3 C

1016.3 hpa

85 %

4.8 km/h aus 105

9.7 km/h aus SSW

9.9 C

12.3 C

12.3 C

12.3 C

0 W/m

0.00 mm

03:55

12.2 C

1016.3 hpa

85 %

4.8 km/h aus 106

11.3 km/h aus SSW

9.8 C

12.2 C

12.2 C

12.2 C

0 W/m

0.00 mm

04:00

12.2 C

1016.4 hpa

85 %

8.0 km/h aus 105

16.1 km/h aus SSW

9.7 C

11.5 C

11.6 C

12.1 C

0 W/m

0.00 mm

04:05

12.2 C

1016.4 hpa

86 %

9.7 km/h aus 105

16.1 km/h aus SSW

9.9 C

11.2 C

11.3 C

12.1 C

0 W/m

0.00 mm

04:10

12.1 C

1016.4 hpa

86 %

8.0 km/h aus 108

16.1 km/h aus SSW

9.8 C

11.4 C

11.5 C

12.1 C

0 W/m

0.00 mm

04:15

12.1 C

1016.4 hpa

86 %

8.0 km/h aus 108

14.5 km/h aus S

9.8 C

11.3 C

11.4 C

12.0 C

0 W/m

0.00 mm

04:20

11.9 C

1016.4 hpa

86 %

6.4 km/h aus 101

11.3 km/h aus SSW

9.7 C

11.6 C

11.6 C

11.9 C

0 W/m

0.00 mm

04:25

11.8 C

1016.4 hpa

86 %

8.0 km/h aus 102

11.3 km/h aus SSW

9.6 C

11.1 C

11.2 C

11.8 C

0 W/m

0.00 mm

04:30

11.8 C

1016.5 hpa

86 %

6.4 km/h aus 102

14.5 km/h aus SW

9.5 C

11.3 C

11.4 C

11.7 C

0 W/m

0.00 mm

04:35

11.7 C

1016.5 hpa

86 %

6.4 km/h aus 101

14.5 km/h aus SW

9.4 C

11.2 C

11.3 C

11.6 C

0 W/m

0.00 mm

04:40

11.6 C

1016.5 hpa

86 %

6.4 km/h aus 108

14.5 km/h aus SSW

9.3 C

11.2 C

11.2 C

11.6 C

0 W/m

0.00 mm

04:45

11.6 C

1016.5 hpa

86 %

6.4 km/h aus 105

11.3 km/h aus SW

9.3 C

11.2 C

11.2 C

11.6 C

0 W/m

0.00 mm

04:50

11.6 C

1016.5 hpa

86 %

6.4 km/h aus 109

12.9 km/h aus SW

9.3 C

11.2 C

11.2 C

11.6 C

0 W/m

0.00 mm

04:55

11.6 C

1016.5 hpa

86 %

8.0 km/h aus 111

17.7 km/h aus SSW

9.3 C

10.8 C

10.8 C

11.6 C

0 W/m

0.00 mm

05:00

11.6 C

1016.6 hpa

86 %

8.0 km/h aus 96

11.3 km/h aus SSW

9.3 C

10.8 C

10.8 C

11.6 C

0 W/m

0.00 mm

05:05

11.6 C

1016.6 hpa

87 %

9.7 km/h aus 110

16.1 km/h aus SW

9.5 C

10.6 C

10.6 C

11.6 C

0 W/m

0.00 mm

05:10

11.6 C

1016.6 hpa

87 %

9.7 km/h aus 107

16.1 km/h aus SSW

9.5 C

10.6 C

10.6 C

11.6 C

0 W/m

0.00 mm

05:15

11.5 C

1016.6 hpa

87 %

8.0 km/h aus 104

16.1 km/h aus SSW

9.4 C

10.8 C

10.8 C

11.5 C

0 W/m

0.00 mm

05:20

11.5 C

1016.6 hpa

87 %

8.0 km/h aus 104

16.1 km/h aus SW

9.4 C

10.8 C

10.8 C

11.5 C

0 W/m

0.00 mm

05:25

11.5 C

1016.6 hpa

87 %

6.4 km/h aus 104

14.5 km/h aus SSW

9.4 C

11.1 C

11.1 C

11.5 C

0 W/m

0.00 mm

05:30

11.5 C

1016.7 hpa

87 %

8.0 km/h aus 99

14.5 km/h aus SSW

9.4 C

10.8 C

10.8 C

11.5 C

0 W/m

0.00 mm

05:35

11.4 C

1016.7 hpa

87 %

6.4 km/h aus 102

16.1 km/h aus SW

9.4 C

11.1 C

11.1 C

11.4 C

0 W/m

0.00 mm

05:40

11.4 C

1016.7 hpa

87 %

8.0 km/h aus 105

14.5 km/h aus SSW

9.4 C

10.7 C

10.7 C

11.4 C

0 W/m

0.00 mm

05:45

11.4 C

1016.8 hpa

88 %

6.4 km/h aus 98

12.9 km/h aus SW

9.5 C

11.1 C

11.1 C

11.5 C

0 W/m

0.00 mm

05:50

11.3 C

1016.8 hpa

88 %

4.8 km/h aus 106

9.7 km/h aus SSW

9.4 C

11.3 C

11.3 C

11.4 C

0 W/m

0.00 mm

05:55

11.3 C

1016.8 hpa

88 %

6.4 km/h aus 109

17.7 km/h aus SSW

9.4 C

10.9 C

10.9 C

11.4 C

0 W/m

0.00 mm

06:00

11.3 C

1016.8 hpa

88 %

8.0 km/h aus 100

14.5 km/h aus SW

9.4 C

10.6 C

10.6 C

11.4 C

0 W/m

0.00 mm

06:05

11.3 C

1016.8 hpa

89 %

6.4 km/h aus 99

17.7 km/h aus SW

9.6 C

10.9 C

10.9 C

11.4 C

0 W/m

0.00 mm

06:10

11.3 C

1016.8 hpa

88 %

8.0 km/h aus 106

12.9 km/h aus SSW

9.4 C

10.6 C

10.5 C

11.3 C

0 W/m

0.00 mm

06:15

11.3 C

1016.9 hpa

89 %

8.0 km/h aus 108

19.3 km/h aus SW

9.5 C

10.6 C

10.5 C

11.3 C

0 W/m

0.00 mm

06:20

11.4 C

1016.9 hpa

89 %

9.7 km/h aus 106

17.7 km/h aus SSW

9.6 C

10.4 C

10.3 C

11.4 C

0 W/m

0.00 mm

06:25

11.4 C

1016.9 hpa

89 %

6.4 km/h aus 105

14.5 km/h aus SSW

9.7 C

11.1 C

11.1 C

11.5 C

0 W/m

0.00 mm

06:30

11.6 C

1017.0 hpa

89 %

9.7 km/h aus 107

17.7 km/h aus SSW

9.9 C

10.7 C

10.6 C

11.7 C

0 W/m

0.00 mm

06:35

11.8 C

1017.0 hpa

89 %

9.7 km/h aus 108

19.3 km/h aus S

10.0 C

10.8 C

10.8 C

11.8 C

0 W/m

0.00 mm

06:40

12.0 C

1017.0 hpa

89 %

8.0 km/h aus 102

19.3 km/h aus SSW

10.2 C

11.4 C

11.3 C

12.1 C

0 W/m

0.00 mm

06:45

12.1 C

1017.0 hpa

88 %

8.0 km/h aus 98

19.3 km/h aus SSW

10.2 C

11.5 C

11.5 C

12.1 C

0 W/m

0.00 mm

06:50

12.2 C

1017.0 hpa

88 %

9.7 km/h aus 108

19.3 km/h aus SSW

10.2 C

11.3 C

11.3 C

12.2 C

0 W/m

0.00 mm

06:55

12.3 C

1017.0 hpa

88 %

9.7 km/h aus 105

16.1 km/h aus SSW

10.3 C

11.4 C

11.4 C

12.3 C

0 W/m

0.00 mm

07:00

12.3 C

1017.2 hpa

88 %

12.9 km/h aus 108

20.9 km/h aus SSW

10.3 C

10.8 C

10.8 C

12.3 C

0 W/m

0.00 mm

07:05

12.3 C

1017.2 hpa

88 %

11.3 km/h aus 106

19.3 km/h aus SSW

10.4 C

11.2 C

11.2 C

12.3 C

0 W/m

0.00 mm

07:10

12.3 C

1017.2 hpa

87 %

12.9 km/h aus 106

20.9 km/h aus SW

10.2 C

10.8 C

10.8 C

12.3 C

0 W/m

0.00 mm

07:15

12.4 C

1017.3 hpa

87 %

12.9 km/h aus 101

22.5 km/h aus SW

10.3 C

10.9 C

10.9 C

12.4 C

0 W/m

0.00 mm

07:20

12.4 C

1017.3 hpa

87 %

12.9 km/h aus 104

22.5 km/h aus SSW

10.3 C

11.0 C

11.0 C

12.4 C

0 W/m

0.00 mm

07:25

12.5 C

1017.3 hpa

87 %

12.9 km/h aus 105

19.3 km/h aus S

10.4 C

11.1 C

11.1 C

12.5 C

0 W/m

0.00 mm

07:30

12.6 C

1017.3 hpa

87 %

9.7 km/h aus 107

16.1 km/h aus SW

10.4 C

11.7 C

11.7 C

12.6 C

0 W/m

0.00 mm

07:35

12.6 C

1017.3 hpa

87 %

8.0 km/h aus 110

14.5 km/h aus SSW

10.5 C

12.1 C

12.1 C

12.6 C

0 W/m

0.00 mm

07:40

12.7 C

1017.3 hpa

87 %

11.3 km/h aus 106

20.9 km/h aus S

10.6 C

11.7 C

11.7 C

12.7 C

0 W/m

0.00 mm

07:45

12.7 C

1017.4 hpa

87 %

11.3 km/h aus 99

20.9 km/h aus S

10.6 C

11.7 C

11.7 C

12.7 C

0 W/m

0.00 mm

07:50

12.8 C

1017.4 hpa

87 %

11.3 km/h aus 111

17.7 km/h aus SSW

10.7 C

11.8 C

11.8 C

12.8 C

0 W/m

0.00 mm

07:55

12.8 C

1017.4 hpa

87 %

8.0 km/h aus 113

14.5 km/h aus S

10.7 C

12.3 C

12.3 C

12.8 C

0 W/m

0.00 mm

08:00

12.9 C

1017.5 hpa

87 %

9.7 km/h aus 107

17.7 km/h aus S

10.8 C

12.2 C

12.2 C

12.9 C

0 W/m

0.00 mm

08:05

12.9 C

1017.5 hpa

87 %

12.9 km/h aus 106

27.4 km/h aus S

10.8 C

11.6 C

11.6 C

12.9 C

0 W/m

0.00 mm

08:10

13.1 C

1017.5 hpa

87 %

12.9 km/h aus 107

27.4 km/h aus SSW

10.9 C

11.7 C

11.7 C

13.1 C

0 W/m

0.00 mm

08:15

13.2 C

1017.5 hpa

86 %

11.3 km/h aus 108

22.5 km/h aus SSW

10.9 C

12.3 C

12.3 C

13.2 C

0 W/m

0.00 mm

08:20

13.3 C

1017.5 hpa

86 %

11.3 km/h aus 105

20.9 km/h aus S

11.0 C

12.4 C

12.4 C

13.3 C

0 W/m

0.00 mm

08:25

13.3 C

1017.5 hpa

86 %

16.1 km/h aus 111

27.4 km/h aus SSW

11.0 C

11.2 C

11.3 C

13.3 C

0 W/m

0.00 mm

08:30

13.4 C

1017.5 hpa

86 %

14.5 km/h aus 102

25.7 km/h aus S

11.1 C

11.7 C

11.8 C

13.4 C

0 W/m

0.00 mm

08:35

13.6 C

1017.5 hpa

86 %

12.9 km/h aus 106

22.5 km/h aus SW

11.3 C

12.3 C

12.3 C

13.5 C

0 W/m

0.00 mm

08:40

13.6 C

1017.5 hpa

86 %

12.9 km/h aus 101

24.1 km/h aus S

11.3 C

12.3 C

12.4 C

13.6 C

0 W/m

0.00 mm

08:45

13.7 C

1017.6 hpa

85 %

12.9 km/h aus 113

22.5 km/h aus SSW

11.2 C

12.4 C

12.4 C

13.6 C

0 W/m

0.00 mm

08:50

13.7 C

1017.6 hpa

85 %

14.5 km/h aus 104

24.1 km/h aus SW

11.2 C

12.1 C

12.1 C

13.7 C

0 W/m

0.00 mm

08:55

13.8 C

1017.6 hpa

85 %

11.3 km/h aus 104

24.1 km/h aus SSW

11.3 C

12.9 C

13.0 C

13.7 C

0 W/m

0.00 mm

09:00

13.9 C

1017.7 hpa

85 %

12.9 km/h aus 108

22.5 km/h aus SSE

11.5 C

12.7 C

12.8 C

13.9 C

0 W/m

0.00 mm

09:05

14.1 C

1017.7 hpa

84 %

16.1 km/h aus 105

24.1 km/h aus SW

11.4 C

12.1 C

12.2 C

14.1 C

0 W/m

0.00 mm

09:10

14.2 C

1017.7 hpa

84 %

16.1 km/h aus 100

24.1 km/h aus S

11.5 C

12.2 C

12.3 C

14.1 C

0 W/m

0.00 mm

09:15

14.3 C

1017.8 hpa

84 %

12.9 km/h aus 108

24.1 km/h aus SSW

11.6 C

13.1 C

13.2 C

14.2 C

0 W/m

0.00 mm

09:20

14.4 C

1017.8 hpa

83 %

14.5 km/h aus 110

29.0 km/h aus S

11.5 C

12.8 C

12.9 C

14.3 C

0 W/m

0.00 mm

09:25

14.5 C

1017.8 hpa

83 %

16.1 km/h aus 104

24.1 km/h aus SW

11.6 C

12.6 C

12.6 C

14.4 C

0 W/m

0.00 mm

09:30

14.7 C

1018.0 hpa

83 %

11.3 km/h aus 106

24.1 km/h aus SSW

11.8 C

14.0 C

14.1 C

14.6 C

0 W/m

0.00 mm

09:35

14.7 C

1018.0 hpa

82 %

14.5 km/h aus 105

27.4 km/h aus SSW

11.7 C

13.2 C

13.3 C

14.7 C

0 W/m

0.00 mm

09:40

14.8 C

1018.0 hpa

82 %

19.3 km/h aus 107

30.6 km/h aus SSW

11.7 C

12.3 C

12.3 C

14.7 C

0 W/m

0.00 mm

09:45

14.8 C

1018.0 hpa

82 %

17.7 km/h aus 109

27.4 km/h aus SSW

11.7 C

12.6 C

12.6 C

14.7 C

0 W/m

0.00 mm

09:50

15.0 C

1018.0 hpa

82 %

9.7 km/h aus 100

22.5 km/h aus S

12.0 C

14.6 C

14.7 C

14.9 C

0 W/m

0.00 mm

09:55

15.0 C

1018.0 hpa

81 %

16.1 km/h aus 108

27.4 km/h aus SW

11.8 C

13.1 C

13.2 C

14.9 C

0 W/m

0.00 mm

10:00

15.0 C

1018.0 hpa

81 %

14.5 km/h aus 109

27.4 km/h aus WSW

11.8 C

13.5 C

13.6 C

14.9 C

0 W/m

0.00 mm

10:05

15.0 C

1018.0 hpa

81 %

19.3 km/h aus 104

30.6 km/h aus SW

11.8 C

12.4 C

12.6 C

14.9 C

0 W/m

0.00 mm

10:10

15.4 C

1018.0 hpa

80 %

16.1 km/h aus 105

30.6 km/h aus S

12.0 C

13.6 C

13.7 C

15.3 C

0 W/m

0.00 mm

10:15

15.6 C

1018.0 hpa

80 %

11.3 km/h aus 108

29.0 km/h aus S

12.1 C

15.1 C

15.1 C

15.5 C

0 W/m

0.00 mm

10:20

15.6 C

1018.0 hpa

79 %

14.5 km/h aus 107

27.4 km/h aus SSW

12.0 C

14.2 C

14.3 C

15.5 C

0 W/m

0.00 mm

10:25

15.6 C

1018.0 hpa

78 %

20.9 km/h aus 102

32.2 km/h aus S

11.7 C

12.8 C

12.9 C

15.4 C

0 W/m

0.00 mm

10:30

15.8 C

1018.0 hpa

79 %

14.5 km/h aus 101

29.0 km/h aus S

12.2 C

14.6 C

14.6 C

15.8 C

0 W/m

0.00 mm

10:35

15.9 C

1018.0 hpa

78 %

17.7 km/h aus 106

27.4 km/h aus SW

12.1 C

13.9 C

13.9 C

15.9 C

0 W/m

0.00 mm

10:40

15.9 C

1018.0 hpa

77 %

16.1 km/h aus 106

25.7 km/h aus SW

11.9 C

14.2 C

14.3 C

15.8 C

0 W/m

0.00 mm

10:45

16.1 C

1018.0 hpa

77 %

16.1 km/h aus 110

32.2 km/h aus SSW

12.1 C

14.4 C

14.5 C

16.0 C

0 W/m

0.00 mm

10:50

16.2 C

1018.0 hpa

78 %

17.7 km/h aus 106

33.8 km/h aus SSW

12.3 C

14.2 C

14.2 C

16.1 C

0 W/m

0.00 mm

10:55

16.3 C

1018.0 hpa

76 %

16.1 km/h aus 104

25.7 km/h aus S

12.1 C

14.7 C

14.8 C

16.2 C

0 W/m

0.00 mm

11:00

16.3 C

1018.0 hpa

75 %

17.7 km/h aus 107

32.2 km/h aus SSW

11.9 C

14.2 C

14.4 C

16.2 C

0 W/m

0.00 mm

11:05

16.3 C

1018.0 hpa

75 %

17.7 km/h aus 110

30.6 km/h aus S

11.8 C

14.2 C

14.3 C

16.1 C

0 W/m

0.00 mm

11:10

16.3 C

1018.0 hpa

77 %

12.9 km/h aus 103

22.5 km/h aus SSW

12.2 C

15.6 C

15.6 C

16.2 C

0 W/m

0.00 mm

11:15

17.0 C

1018.0 hpa

73 %

17.7 km/h aus 104

33.8 km/h aus S

12.1 C

15.1 C

15.2 C

16.9 C

0 W/m

0.00 mm

11:20

17.2 C

1018.0 hpa

74 %

14.5 km/h aus 106

29.0 km/h aus S

12.5 C

16.2 C

16.2 C

17.2 C

0 W/m

0.00 mm

11:25

17.1 C

1018.0 hpa

72 %

19.3 km/h aus 106

29.0 km/h aus SW

12.0 C

14.8 C

15.0 C

16.9 C

0 W/m

0.00 mm

11:30

16.9 C

1018.0 hpa

73 %

16.1 km/h aus 108

29.0 km/h aus SSW

12.1 C

15.4 C

15.5 C

16.8 C

0 W/m

0.00 mm

11:35

16.9 C

1018.0 hpa

73 %

16.1 km/h aus 108

24.1 km/h aus SW

12.0 C

15.3 C

15.4 C

16.7 C

0 W/m

0.00 mm

11:40

16.8 C

1018.0 hpa

74 %

16.1 km/h aus 108

27.4 km/h aus SSW

12.1 C

15.2 C

15.3 C

16.7 C

0 W/m

0.00 mm

11:45

16.8 C

1018.0 hpa

74 %

16.1 km/h aus 109

29.0 km/h aus S

12.1 C

15.2 C

15.3 C

16.7 C

0 W/m

0.00 mm

11:50

17.3 C

1018.0 hpa

75 %

19.3 km/h aus 113

35.4 km/h aus SSE

12.9 C

15.2 C

15.2 C

17.3 C

0 W/m

0.00 mm

11:55

17.4 C

1018.0 hpa

70 %

17.7 km/h aus 104

32.2 km/h aus SW

11.9 C

15.4 C

15.6 C

17.2 C

0 W/m

0.00 mm

12:00

17.3 C

1017.8 hpa

72 %

16.1 km/h aus 105

30.6 km/h aus SSW

12.2 C

15.8 C

15.9 C

17.2 C

0 W/m

0.00 mm

12:05

18.0 C

1017.8 hpa

68 %

20.9 km/h aus 109

35.4 km/h aus S

12.0 C

15.6 C

15.7 C

17.9 C

0 W/m

0.00 mm

12:10

18.1 C

1017.8 hpa

67 %

19.3 km/h aus 108

32.2 km/h aus S

11.9 C

15.9 C

16.1 C

17.9 C

0 W/m

0.00 mm

12:15

18.2 C

1017.9 hpa

64 %

17.7 km/h aus 109

38.6 km/h aus S

11.3 C

16.4 C

16.6 C

18.0 C

0 W/m

0.00 mm

12:20

18.5 C

1017.9 hpa

67 %

17.7 km/h aus 105

32.2 km/h aus SSW

12.3 C

16.9 C

16.9 C

18.4 C

0 W/m

0.00 mm

12:25

18.1 C

1017.9 hpa

67 %

19.3 km/h aus 106

30.6 km/h aus SSW

11.8 C

15.9 C

16.1 C

17.9 C

0 W/m

0.00 mm

12:30

17.8 C

1017.9 hpa

67 %

17.7 km/h aus 111

30.6 km/h aus SW

11.6 C

15.9 C

16.1 C

17.6 C

0 W/m

0.00 mm

12:35

17.7 C

1017.9 hpa

67 %

17.7 km/h aus 106

30.6 km/h aus SSW

11.5 C

15.8 C

16.0 C

17.5 C

0 W/m

0.00 mm

12:40

17.6 C

1017.9 hpa

66 %

16.1 km/h aus 107

30.6 km/h aus SSW

11.2 C

16.0 C

16.3 C

17.3 C

0 W/m

0.00 mm

12:45

17.9 C

1017.7 hpa

67 %

19.3 km/h aus 116

33.8 km/h aus SW

11.7 C

15.8 C

15.9 C

17.8 C

0 W/m

0.00 mm

12:50

18.4 C

1017.7 hpa

64 %

20.9 km/h aus 104

40.2 km/h aus S

11.5 C

15.9 C

16.2 C

18.2 C

0 W/m

0.00 mm

12:55

18.2 C

1017.7 hpa

65 %

22.5 km/h aus 107

37.0 km/h aus S

11.5 C

15.6 C

15.8 C

18.1 C

0 W/m

0.00 mm

13:00

18.3 C

1017.6 hpa

65 %

17.7 km/h aus 110

33.8 km/h aus S

11.6 C

16.6 C

16.7 C

18.2 C

0 W/m

0.00 mm

13:05

18.6 C

1017.6 hpa

65 %

17.7 km/h aus 102

32.2 km/h aus S

11.8 C

16.8 C

17.0 C

18.4 C

0 W/m

0.00 mm

13:10

18.8 C

1017.6 hpa

62 %

16.1 km/h aus 111

29.0 km/h aus SW

11.4 C

17.4 C

17.7 C

18.6 C

0 W/m

0.00 mm

13:15

19.1 C

1017.4 hpa

63 %

14.5 km/h aus 108

27.4 km/h aus S

11.9 C

18.2 C

18.4 C

18.9 C

0 W/m

0.00 mm

13:20

18.9 C

1017.4 hpa

62 %

19.3 km/h aus 108

37.0 km/h aus S

11.4 C

16.7 C

17.0 C

18.6 C

0 W/m

0.00 mm

13:25

18.7 C

1017.4 hpa

63 %

16.1 km/h aus 109

25.7 km/h aus SW

11.5 C

17.3 C

17.5 C

18.4 C

0 W/m

0.00 mm

13:30

19.2 C

1017.3 hpa

63 %

14.5 km/h aus 110

29.0 km/h aus SW

12.0 C

18.3 C

18.4 C

19.0 C

0 W/m

0.00 mm

13:35

19.1 C

1017.3 hpa

60 %

17.7 km/h aus 112

32.2 km/h aus SW

11.1 C

17.2 C

17.6 C

18.7 C

0 W/m

0.00 mm

13:40

19.6 C

1017.3 hpa

59 %

16.1 km/h aus 112

32.2 km/h aus WSW

11.4 C

18.2 C

18.5 C

19.3 C

0 W/m

0.00 mm

13:45

19.5 C

1017.4 hpa

58 %

24.1 km/h aus 105

37.0 km/h aus SSW

11.0 C

16.7 C

17.0 C

19.2 C

0 W/m

0.00 mm

13:50

19.3 C

1017.4 hpa

60 %

17.7 km/h aus 112

38.6 km/h aus S

11.3 C

17.5 C

17.8 C

18.9 C

0 W/m

0.00 mm

13:55

18.8 C

1017.4 hpa

60 %

20.9 km/h aus 104

40.2 km/h aus SSW

10.8 C

16.2 C

16.6 C

18.4 C

0 W/m

0.00 mm

14:00

18.3 C

1017.4 hpa

61 %

17.7 km/h aus 107

38.6 km/h aus S

10.7 C

16.3 C

16.7 C

17.9 C

0 W/m

0.00 mm

14:05

18.0 C

1017.4 hpa

62 %

14.5 km/h aus 110

25.7 km/h aus SSW

10.6 C

16.8 C

17.2 C

17.6 C

0 W/m

0.00 mm

14:10

17.7 C

1017.4 hpa

65 %

16.1 km/h aus 102

29.0 km/h aus W

11.1 C

16.1 C

16.4 C

17.4 C

0 W/m

0.00 mm

14:15

16.5 C

1017.7 hpa

73 %

16.1 km/h aus 102

35.4 km/h aus WNW

11.6 C

14.8 C

14.9 C

16.3 C

0 W/m

0.25 mm

14:20

15.4 C

1017.7 hpa

78 %

14.5 km/h aus 103

29.0 km/h aus NW

11.6 C

14.1 C

14.2 C

15.3 C

0 W/m

0.00 mm

14:25

15.0 C

1017.7 hpa

82 %

6.4 km/h aus 105

14.5 km/h aus NW

12.0 C

14.9 C

15.0 C

14.9 C

0 W/m

0.00 mm

14:30

14.8 C

1017.9 hpa

84 %

6.4 km/h aus 101

14.5 km/h aus W

12.2 C

14.8 C

14.8 C

14.8 C

0 W/m

0.25 mm

14:35

14.7 C

1017.9 hpa

86 %

8.0 km/h aus 103

20.9 km/h aus SW

12.3 C

14.5 C

14.5 C

14.7 C

0 W/m

1.78 mm

14:40

14.4 C

1017.9 hpa

86 %

11.3 km/h aus 107

22.5 km/h aus SW

12.1 C

13.7 C

13.8 C

14.4 C

0 W/m

0.51 mm

14:45

14.8 C

1017.7 hpa

88 %

8.0 km/h aus 106

16.1 km/h aus SW

12.8 C

14.7 C

14.6 C

14.8 C

0 W/m

0.00 mm

14:50

15.2 C

1017.7 hpa

88 %

8.0 km/h aus 109

16.1 km/h aus SSW

13.2 C

15.2 C

15.1 C

15.2 C

0 W/m

0.00 mm

14:55

15.5 C

1017.7 hpa

86 %

9.7 km/h aus 111

16.1 km/h aus SSW

13.2 C

15.3 C

15.3 C

15.6 C

0 W/m

0.00 mm

15:00

15.8 C

1017.4 hpa

87 %

8.0 km/h aus 108

17.7 km/h aus S

13.7 C

15.9 C

15.8 C

15.9 C

0 W/m

0.00 mm

15:05

15.9 C

1017.4 hpa

85 %

9.7 km/h aus 110

17.7 km/h aus SSW

13.4 C

15.9 C

15.8 C

16.1 C

0 W/m

0.00 mm

15:10

16.2 C

1017.4 hpa

83 %

14.5 km/h aus 109

30.6 km/h aus SW

13.3 C

15.1 C

15.0 C

16.2 C

0 W/m

0.00 mm

15:15

16.3 C

1017.4 hpa

81 %

12.9 km/h aus 111

22.5 km/h aus SW

13.0 C

15.7 C

15.6 C

16.3 C

0 W/m

0.00 mm

15:20

16.7 C

1017.4 hpa

79 %

12.9 km/h aus 111

24.1 km/h aus SW

13.0 C

16.1 C

16.1 C

16.7 C

0 W/m

0.00 mm

15:25

16.9 C

1017.4 hpa

79 %

11.3 km/h aus 106

19.3 km/h aus SW

13.3 C

16.9 C

16.8 C

17.1 C

0 W/m

0.00 mm

15:30

17.2 C

1017.4 hpa

79 %

12.9 km/h aus 111

24.1 km/h aus SW

13.5 C

16.8 C

16.7 C

17.3 C

0 W/m

0.00 mm

15:35

17.2 C

1017.4 hpa

75 %

14.5 km/h aus 105

24.1 km/h aus SW

12.7 C

16.2 C

16.2 C

17.2 C

0 W/m

0.00 mm

15:40

17.5 C

1017.4 hpa

74 %

12.9 km/h aus 106

27.4 km/h aus S

12.8 C

17.1 C

17.1 C

17.5 C

0 W/m

0.00 mm

15:45

17.3 C

1017.4 hpa

73 %

16.1 km/h aus 108

29.0 km/h aus S

12.4 C

15.9 C

15.9 C

17.3 C

0 W/m

0.00 mm

15:50

17.1 C

1017.4 hpa

72 %

14.5 km/h aus 106

25.7 km/h aus SW

12.0 C

15.9 C

16.1 C

16.9 C

0 W/m

0.00 mm

15:55

17.2 C

1017.4 hpa

73 %

11.3 km/h aus 108

22.5 km/h aus SW

12.3 C

17.0 C

17.1 C

17.1 C

0 W/m

0.00 mm

16:00

17.1 C

1017.3 hpa

72 %

17.7 km/h aus 105

29.0 km/h aus SW

12.0 C

15.2 C

15.3 C

16.9 C

0 W/m

0.00 mm

16:05

17.2 C

1017.3 hpa

72 %

14.5 km/h aus 103

25.7 km/h aus SSW

12.1 C

16.1 C

16.2 C

17.1 C

0 W/m

0.00 mm

16:10

17.2 C

1017.3 hpa

70 %

17.7 km/h aus 108

41.8 km/h aus SSW

11.7 C

15.3 C

15.4 C

17.1 C

0 W/m

0.00 mm

16:15

17.2 C

1017.3 hpa

69 %

17.7 km/h aus 110

32.2 km/h aus SSW

11.5 C

15.2 C

15.4 C

17.0 C

0 W/m

0.00 mm

16:20

17.2 C

1017.3 hpa

69 %

22.5 km/h aus 95

38.6 km/h aus SSW

11.4 C

14.3 C

14.6 C

16.9 C

0 W/m

0.00 mm

16:25

17.2 C

1017.3 hpa

69 %

17.7 km/h aus 91

30.6 km/h aus SSW

11.5 C

15.2 C

15.4 C

17.0 C

0 W/m

0.00 mm

16:30

17.3 C

1017.1 hpa

69 %

14.5 km/h aus 98

29.0 km/h aus S

11.6 C

16.2 C

16.3 C

17.2 C

0 W/m

0.00 mm

16:35

17.4 C

1017.1 hpa

69 %

16.1 km/h aus 98

33.8 km/h aus SSW

11.6 C

15.8 C

16.0 C

17.2 C

0 W/m

0.00 mm

16:40

17.3 C

1017.1 hpa

69 %

16.1 km/h aus 103

30.6 km/h aus WSW

11.6 C

15.8 C

15.9 C

17.2 C

0 W/m

0.00 mm

16:45

17.3 C

1017.2 hpa

68 %

20.9 km/h aus 104

33.8 km/h aus SSW

11.3 C

14.7 C

14.9 C

17.1 C

0 W/m

0.00 mm

16:50

17.3 C

1017.2 hpa

69 %

16.1 km/h aus 108

32.2 km/h aus WSW

11.5 C

15.7 C

15.9 C

17.1 C

0 W/m

0.00 mm

16:55

17.2 C

1017.2 hpa

69 %

20.9 km/h aus 106

35.4 km/h aus S

11.5 C

14.6 C

14.8 C

17.0 C

0 W/m

0.00 mm

17:00

17.0 C

1017.3 hpa

69 %

20.9 km/h aus 103

37.0 km/h aus SSW

11.3 C

14.4 C

14.6 C

16.8 C

0 W/m

0.00 mm

17:05

16.8 C

1017.3 hpa

69 %

22.5 km/h aus 94

37.0 km/h aus SSW

11.1 C

13.9 C

14.2 C

16.6 C

0 W/m

0.00 mm

17:10

16.7 C

1017.3 hpa

70 %

20.9 km/h aus 103

40.2 km/h aus SW

11.2 C

14.0 C

14.3 C

16.4 C

0 W/m

0.00 mm

17:15

16.6 C

1017.4 hpa

72 %

19.3 km/h aus 97

32.2 km/h aus SW

11.5 C

14.2 C

14.4 C

16.4 C

0 W/m

0.00 mm

17:20

16.5 C

1017.4 hpa

72 %

20.9 km/h aus 104

35.4 km/h aus S

11.4 C

13.8 C

14.0 C

16.3 C

0 W/m

0.00 mm

17:25

16.2 C

1017.4 hpa

73 %

20.9 km/h aus 104

30.6 km/h aus SSW

11.4 C

13.4 C

13.7 C

16.0 C

0 W/m

0.00 mm

17:30

16.1 C

1017.4 hpa

74 %

17.7 km/h aus 104

29.0 km/h aus SW

11.4 C

13.9 C

14.1 C

15.8 C

0 W/m

0.00 mm

17:35

16.1 C

1017.4 hpa

75 %

17.7 km/h aus 99

29.0 km/h aus S

11.6 C

13.9 C

14.1 C

15.9 C

0 W/m

0.00 mm

17:40

16.0 C

1017.4 hpa

74 %

19.3 km/h aus 101

35.4 km/h aus SSW

11.4 C

13.5 C

13.7 C

15.8 C

0 W/m

0.00 mm

17:45

15.9 C

1017.4 hpa

74 %

19.3 km/h aus 100

37.0 km/h aus SSW

11.3 C

13.4 C

13.7 C

15.7 C

0 W/m

0.00 mm

17:50

15.8 C

1017.4 hpa

74 %

22.5 km/h aus 95

38.6 km/h aus S

11.2 C

12.8 C

13.1 C

15.6 C

0 W/m

0.00 mm

17:55

15.7 C

1017.4 hpa

75 %

20.9 km/h aus 100

32.2 km/h aus SSW

11.3 C

12.9 C

13.1 C

15.5 C

0 W/m

0.00 mm

18:00

15.6 C

1017.4 hpa

76 %

20.9 km/h aus 97

37.0 km/h aus WSW

11.3 C

12.8 C

12.9 C

15.4 C

0 W/m

0.00 mm

18:05

15.0 C

1017.4 hpa

79 %

25.7 km/h aus 95

45.1 km/h aus SSW

11.4 C

11.6 C

11.7 C

14.8 C

0 W/m

0.00 mm

18:10

14.6 C

1017.4 hpa

82 %

20.9 km/h aus 103

32.2 km/h aus SSW

11.5 C

11.7 C

11.8 C

14.4 C

0 W/m

0.00 mm

18:15

14.0 C

1017.5 hpa

84 %

12.9 km/h aus 103

22.5 km/h aus SSW

11.3 C

12.8 C

12.8 C

13.9 C

0 W/m

0.00 mm

18:20

13.8 C

1017.5 hpa

86 %

9.7 km/h aus 110

22.5 km/h aus S

11.5 C

13.2 C

13.2 C

13.7 C

0 W/m

0.25 mm

18:25

13.7 C

1017.5 hpa

87 %

9.7 km/h aus 110

19.3 km/h aus SSW

11.5 C

13.1 C

13.1 C

13.7 C

0 W/m

0.00 mm

18:30

13.8 C

1017.1 hpa

88 %

11.3 km/h aus 113

22.5 km/h aus SSW

11.8 C

13.0 C

13.0 C

13.8 C

0 W/m

0.00 mm

18:35

13.8 C

1017.1 hpa

88 %

12.9 km/h aus 106

20.9 km/h aus S

11.9 C

12.7 C

12.7 C

13.8 C

0 W/m

0.00 mm

18:40

13.8 C

1017.1 hpa

88 %

16.1 km/h aus 99

24.1 km/h aus SSE

11.8 C

11.8 C

11.8 C

13.8 C

0 W/m

0.00 mm

18:45

13.8 C

1017.0 hpa

89 %

16.1 km/h aus 103

20.9 km/h aus S

12.1 C

11.9 C

11.9 C

13.9 C

0 W/m

0.00 mm

18:50

13.8 C

1017.0 hpa

89 %

14.5 km/h aus 100

25.7 km/h aus S

12.0 C

12.2 C

12.2 C

13.8 C

0 W/m

0.25 mm

18:55

13.8 C

1017.0 hpa

90 %

11.3 km/h aus 105

19.3 km/h aus SSW

12.2 C

13.1 C

13.0 C

13.8 C

0 W/m

0.00 mm

19:00

13.8 C

1016.9 hpa

91 %

11.3 km/h aus 102

22.5 km/h aus S

12.4 C

13.1 C

13.1 C

13.9 C

0 W/m

0.00 mm

19:05

13.7 C

1016.9 hpa

91 %

12.9 km/h aus 107

25.7 km/h aus SSE

12.3 C

12.6 C

12.5 C

13.8 C

0 W/m

0.25 mm

19:10

13.7 C

1016.9 hpa

91 %

12.9 km/h aus 105

24.1 km/h aus S

12.2 C

12.5 C

12.4 C

13.7 C

0 W/m

0.00 mm

19:15

13.7 C

1016.6 hpa

91 %

12.9 km/h aus 110

20.9 km/h aus SSE

12.2 C

12.5 C

12.4 C

13.7 C

0 W/m

0.25 mm

19:20

13.7 C

1016.6 hpa

92 %

12.9 km/h aus 100

20.9 km/h aus S

12.4 C

12.5 C

12.4 C

13.7 C

0 W/m

0.00 mm

19:25

13.7 C

1016.6 hpa

92 %

11.3 km/h aus 111

20.9 km/h aus S

12.4 C

12.9 C

12.9 C

13.8 C

0 W/m

0.00 mm

19:30

13.7 C

1016.4 hpa

92 %

14.5 km/h aus 110

22.5 km/h aus SSW

12.4 C

12.2 C

12.1 C

13.8 C

0 W/m

0.00 mm

19:35

13.7 C

1016.4 hpa

92 %

12.9 km/h aus 104

24.1 km/h aus S

12.4 C

12.6 C

12.5 C

13.8 C

0 W/m

0.25 mm

19:40

13.7 C

1016.4 hpa

92 %

14.5 km/h aus 108

30.6 km/h aus S

12.4 C

12.2 C

12.1 C

13.8 C

0 W/m

0.00 mm

19:45

13.7 C

1016.3 hpa

92 %

11.3 km/h aus 109

19.3 km/h aus SSW

12.4 C

12.9 C

12.9 C

13.8 C

0 W/m

0.25 mm

19:50

13.8 C

1016.3 hpa

92 %

14.5 km/h aus 108

32.2 km/h aus SSW

12.5 C

12.2 C

12.2 C

13.8 C

0 W/m

0.00 mm

19:55

13.8 C

1016.3 hpa

92 %

14.5 km/h aus 105

24.1 km/h aus S

12.5 C

12.2 C

12.2 C

13.8 C

0 W/m

0.00 mm

20:00

13.8 C

1016.2 hpa

92 %

14.5 km/h aus 109

24.1 km/h aus SW

12.6 C

12.3 C

12.2 C

13.9 C

0 W/m

0.25 mm

20:05

13.8 C

1016.2 hpa

92 %

19.3 km/h aus 105

32.2 km/h aus S

12.6 C

11.3 C

11.2 C

13.9 C

0 W/m

0.00 mm

20:10

13.9 C

1016.2 hpa

92 %

11.3 km/h aus 107

22.5 km/h aus SW

12.6 C

13.2 C

13.1 C

13.9 C

0 W/m

0.00 mm

20:15

13.9 C

1015.9 hpa

92 %

14.5 km/h aus 110

32.2 km/h aus SSW

12.7 C

12.4 C

12.3 C

14.0 C

0 W/m

0.51 mm

20:20

13.9 C

1015.9 hpa

92 %

14.5 km/h aus 105

27.4 km/h aus S

12.6 C

12.3 C

12.3 C

13.9 C

0 W/m

0.00 mm

20:25

13.9 C

1015.9 hpa

92 %

19.3 km/h aus 109

33.8 km/h aus SW

12.6 C

11.3 C

11.3 C

13.9 C

0 W/m

0.25 mm

20:30

13.9 C

1015.8 hpa

92 %

20.9 km/h aus 111

32.2 km/h aus SSW

12.6 C

11.1 C

11.1 C

13.9 C

0 W/m

0.25 mm

20:35

13.9 C

1015.8 hpa

92 %

16.1 km/h aus 110

27.4 km/h aus SSW

12.6 C

12.0 C

11.9 C

13.9 C

0 W/m

0.00 mm

20:40

13.9 C

1015.8 hpa

92 %

16.1 km/h aus 110

25.7 km/h aus S

12.6 C

12.0 C

11.9 C

13.9 C

0 W/m

0.25 mm

20:45

13.9 C

1015.5 hpa

92 %

14.5 km/h aus 108

24.1 km/h aus SW

12.6 C

12.3 C

12.3 C

13.9 C

0 W/m

0.00 mm

20:50

13.9 C

1015.5 hpa

92 %

16.1 km/h aus 106

29.0 km/h aus SSW

12.6 C

12.0 C

11.9 C

13.9 C

0 W/m

0.00 mm

20:55

13.8 C

1015.5 hpa

92 %

17.7 km/h aus 112

30.6 km/h aus SSW

12.6 C

11.6 C

11.6 C

13.9 C

0 W/m

0.00 mm

21:00

13.8 C

1015.4 hpa

92 %

19.3 km/h aus 112

32.2 km/h aus S

12.6 C

11.3 C

11.2 C

13.9 C

0 W/m

0.00 mm

21:05

13.8 C

1015.4 hpa

92 %

14.5 km/h aus 111

30.6 km/h aus S

12.6 C

12.3 C

12.2 C

13.9 C

0 W/m

0.00 mm

21:10

13.9 C

1015.4 hpa

92 %

20.9 km/h aus 111

33.8 km/h aus SSW

12.6 C

11.1 C

11.1 C

13.9 C

0 W/m

0.25 mm

21:15

13.8 C

1015.3 hpa

92 %

19.3 km/h aus 108

29.0 km/h aus SSW

12.6 C

11.3 C

11.2 C

13.9 C

0 W/m

0.00 mm

21:20

13.8 C

1015.3 hpa

93 %

17.7 km/h aus 102

30.6 km/h aus S

12.7 C

11.7 C

11.6 C

13.9 C

0 W/m

0.00 mm

21:25

13.8 C

1015.3 hpa

93 %

20.9 km/h aus 112

33.8 km/h aus SW

12.7 C

11.1 C

11.0 C

13.9 C

0 W/m

0.25 mm

21:30

13.8 C

1015.2 hpa

93 %

19.3 km/h aus 101

35.4 km/h aus SSW

12.7 C

11.3 C

11.2 C

13.9 C

0 W/m

0.00 mm

21:35

13.9 C

1015.2 hpa

93 %

17.7 km/h aus 107

33.8 km/h aus SW

12.8 C

11.7 C

11.6 C

14.0 C

0 W/m

0.00 mm

21:40

13.8 C

1015.2 hpa

92 %

16.1 km/h aus 110

32.2 km/h aus SSW

12.6 C

11.9 C

11.9 C

13.9 C

0 W/m

0.25 mm

21:45

13.9 C

1015.3 hpa

92 %

20.9 km/h aus 103

37.0 km/h aus SSW

12.6 C

11.1 C

11.1 C

13.9 C

0 W/m

0.00 mm

21:50

13.9 C

1015.3 hpa

92 %

17.7 km/h aus 107

33.8 km/h aus SSW

12.6 C

11.7 C

11.6 C

13.9 C

0 W/m

0.00 mm

21:55

13.9 C

1015.3 hpa

92 %

17.7 km/h aus 106

35.4 km/h aus S

12.7 C

11.7 C

11.7 C

14.0 C

0 W/m

0.25 mm

22:00

13.9 C

1015.2 hpa

92 %

20.9 km/h aus 105

32.2 km/h aus SSW

12.6 C

11.1 C

11.1 C

13.9 C

0 W/m

0.00 mm

22:05

13.9 C

1015.2 hpa

92 %

17.7 km/h aus 103

35.4 km/h aus SSW

12.6 C

11.7 C

11.6 C

13.9 C

0 W/m

0.00 mm

22:10

13.8 C

1015.2 hpa

92 %

19.3 km/h aus 112

33.8 km/h aus SSW

12.6 C

11.3 C

11.2 C

13.9 C

0 W/m

0.00 mm

22:15

13.8 C

1015.0 hpa

92 %

17.7 km/h aus 106

32.2 km/h aus S

12.6 C

11.6 C

11.6 C

13.9 C

0 W/m

0.25 mm

22:20

13.8 C

1015.0 hpa

92 %

19.3 km/h aus 108

32.2 km/h aus SW

12.6 C

11.3 C

11.2 C

13.9 C

0 W/m

0.25 mm

22:25

13.8 C

1015.0 hpa

92 %

20.9 km/h aus 106

35.4 km/h aus SSW

12.6 C

11.1 C

11.0 C

13.9 C

0 W/m

0.00 mm

22:30

13.8 C

1014.9 hpa

92 %

12.9 km/h aus 100

24.1 km/h aus SW

12.6 C

12.7 C

12.7 C

13.9 C

0 W/m

0.00 mm

22:35

13.8 C

1014.9 hpa

92 %

17.7 km/h aus 107

33.8 km/h aus S

12.5 C

11.6 C

11.5 C

13.8 C

0 W/m

0.00 mm

22:40

13.8 C

1014.9 hpa

92 %

17.7 km/h aus 106

29.0 km/h aus SW

12.5 C

11.6 C

11.5 C

13.8 C

0 W/m

0.25 mm

22:45

13.7 C

1014.8 hpa

92 %

16.1 km/h aus 111

24.1 km/h aus S

12.4 C

11.8 C

11.7 C

13.8 C

0 W/m

0.00 mm

22:50

13.7 C

1014.8 hpa

92 %

14.5 km/h aus 102

33.8 km/h aus S

12.4 C

12.2 C

12.1 C

13.8 C

0 W/m

0.00 mm

22:55

13.7 C

1014.8 hpa

92 %

17.7 km/h aus 103

29.0 km/h aus SSW

12.4 C

11.4 C

11.3 C

13.7 C

0 W/m

0.00 mm

23:00

13.7 C

1014.5 hpa

92 %

14.5 km/h aus 105

25.7 km/h aus SSW

12.4 C

12.1 C

12.1 C

13.7 C

0 W/m

0.00 mm

23:05

13.7 C

1014.5 hpa

92 %

19.3 km/h aus 105

32.2 km/h aus SSW

12.4 C

11.1 C

11.1 C

13.7 C

0 W/m

0.00 mm

23:10

13.7 C

1014.5 hpa

92 %

17.7 km/h aus 111

32.2 km/h aus SSW

12.4 C

11.4 C

11.3 C

13.7 C

0 W/m

0.00 mm

23:15

13.7 C

1014.4 hpa

92 %

12.9 km/h aus 105

22.5 km/h aus SSW

12.4 C

12.5 C

12.4 C

13.7 C

0 W/m

0.00 mm

23:20

13.6 C

1014.4 hpa

92 %

14.5 km/h aus 110

25.7 km/h aus S

12.3 C

12.1 C

12.0 C

13.7 C

0 W/m

0.00 mm

23:25

13.6 C

1014.4 hpa

93 %

14.5 km/h aus 113

33.8 km/h aus S

12.5 C

12.1 C

12.0 C

13.7 C

0 W/m

0.00 mm

23:30

13.6 C

1014.3 hpa

93 %

17.7 km/h aus 112

29.0 km/h aus S

12.4 C

11.3 C

11.2 C

13.7 C

0 W/m

0.00 mm

23:35

13.6 C

1014.3 hpa

93 %

14.5 km/h aus 116

25.7 km/h aus S

12.4 C

12.0 C

11.9 C

13.7 C

0 W/m

0.00 mm

23:40

13.6 C

1014.3 hpa

93 %

12.9 km/h aus 107

22.5 km/h aus S

12.4 C

12.4 C

12.3 C

13.7 C

0 W/m

0.25 mm

23:45

13.5 C

1014.2 hpa

93 %

12.9 km/h aus 108

20.9 km/h aus S

12.4 C

12.4 C

12.3 C

13.6 C

0 W/m

0.00 mm

23:50

13.5 C

1014.2 hpa

93 %

12.9 km/h aus 112

24.1 km/h aus S

12.4 C

12.4 C

12.3 C

13.6 C

0 W/m

0.00 mm

23:55

13.5 C

1014.2 hpa

93 %

9.7 km/h aus 110

20.9 km/h aus SSW

12.4 C

13.0 C

12.9 C

13.6 C

0 W/m

0.00 mm